Olivia, MN

7:21 PM CST on December 03, 2016 (GMT -0600)
Olivia Regional

Weather History for KOVL - November, 2013

Change the Weather History Date:

Saturday, November 9, 2013

  Actual Average (KRWF) Record (KRWF)
Temperature  
Mean Temperature 38 °F -  
Max Temperature 42 °F 42 °F 74 °F (1999)
Min Temperature 33 °F 28 °F 10 °F (1945)
Degree Days  
Heating Degree Days 28    
Moisture  
Dew Point 32 °F    
Average Humidity 76    
Maximum Humidity 87    
Minimum Humidity 61    
Precipitation  
Precipitation 0.00 in - - ()
Sea Level Pressure  
Sea Level Pressure 29.97 in    
Wind  
Wind Speed 15 mph (WNW)    
Max Wind Speed 33 mph    
Max Gust Speed 39 mph    
Visibility 10 miles    
Events      
Averages and records for this station are not official NWS values.
T = Trace of Precipitation, MM = Missing Value Source: NWS Daily Summary

Daily Weather History Graph

Daily Weather History Graph

Search for Another Location

Airport or City:

Trip Planner

Search our weather history database for the weather conditions in past years. The results will help you decide how hot, cold, wet, or windy it might be!

Date:

Astronomy

Nov. 09, 2013 Rise Set
Actual Time 7:09 AM CST 4:57 PM CST
Civil Twilight 6:38 AM CST 5:29 PM CST
Nautical Twilight 6:03 AM CST 6:04 PM CST
Astronomical Twilight 5:28 AM CST 6:38 PM CST
Moon 12:44 PM CST (11/9) 11:33 PM CST (11/9)
Length of Visible Light 10h 50m
Length of Day
9h 48m
Waxing Crescent, 44% of the Moon is Illuminated
Nov 9
Waxing Crescent
Nov 9
First Quarter
Nov 17
Full
Nov 25
Last Quarter
Dec 2
New

Hourly Weather History & Observations

Time (CST) Temp. Windchill Dew Point Humidity Pressure Visibility Wind Dir Wind Speed Gust Speed Precip Events Conditions
12:14 AM 39.2 °F 32.0 °F 35.6 °F 87% 29.66 in 10.0 mi West 11.5 mph - N/A   Clear
12:33 AM 37.4 °F 30.3 °F 33.8 °F 87% 29.68 in 10.0 mi West 10.4 mph - N/A   Scattered Clouds
12:53 AM 39.2 °F 31.6 °F 35.6 °F 87% 29.68 in 10.0 mi West 12.7 mph - N/A   Mostly Cloudy
1:14 AM 39.2 °F 31.6 °F 35.6 °F 87% 29.69 in 10.0 mi West 12.7 mph - N/A   Overcast
1:33 AM 39.2 °F 31.6 °F 35.6 °F 87% 29.70 in 10.0 mi West 12.7 mph - N/A   Overcast
1:53 AM 39.2 °F 31.6 °F 35.6 °F 87% 29.71 in 10.0 mi West 12.7 mph - N/A   Overcast
2:13 AM 41.0 °F 34.3 °F 35.6 °F 81% 29.71 in 10.0 mi West 11.5 mph - N/A   Overcast
2:33 AM 39.2 °F 32.5 °F 35.6 °F 87% 29.72 in 10.0 mi West 10.4 mph - N/A   Overcast
2:54 AM 39.2 °F 32.5 °F 35.6 °F 87% 29.72 in 10.0 mi West 10.4 mph - N/A   Overcast
3:13 AM 39.2 °F 33.0 °F 35.6 °F 87% 29.73 in 10.0 mi West 9.2 mph - N/A   Overcast
3:34 AM 41.0 °F 33.9 °F 37.4 °F 87% 29.73 in 10.0 mi West 12.7 mph - N/A   Overcast
3:53 AM 42.8 °F 36.6 °F 37.4 °F 81% 29.74 in 10.0 mi WNW 11.5 mph - N/A   Overcast
4:13 AM 42.8 °F 36.2 °F 37.4 °F 81% 29.74 in 10.0 mi WNW 12.7 mph 20.7 mph N/A   Overcast
4:34 AM 42.8 °F 36.6 °F 37.4 °F 81% 29.75 in 10.0 mi WNW 11.5 mph - N/A   Overcast
4:53 AM 42.8 °F 36.2 °F 37.4 °F 81% 29.76 in 10.0 mi WNW 12.7 mph 18.4 mph N/A   Overcast
5:13 AM 42.8 °F 35.4 °F 37.4 °F 81% 29.77 in 10.0 mi WNW 15.0 mph 20.7 mph N/A   Overcast
5:33 AM 42.8 °F 35.1 °F 37.4 °F 81% 29.77 in 10.0 mi WNW 16.1 mph 20.7 mph N/A   Overcast
5:54 AM 42.8 °F 34.8 °F 37.4 °F 81% 29.79 in 10.0 mi WNW 17.3 mph 25.3 mph N/A   Overcast
6:13 AM 42.8 °F 35.1 °F 37.4 °F 81% 29.80 in 10.0 mi WNW 16.1 mph 24.2 mph N/A   Overcast
6:34 AM 42.8 °F 32.5 °F 37.4 °F 81% 29.81 in 10.0 mi WNW 28.8 mph 34.5 mph N/A   Overcast
6:53 AM 41.0 °F 32.5 °F 35.6 °F 81% 29.83 in 10.0 mi WNW 17.3 mph 25.3 mph N/A   Overcast
7:13 AM 41.0 °F 31.1 °F 35.6 °F 81% 29.84 in 10.0 mi NW 23.0 mph 33.4 mph N/A   Overcast
7:33 AM 41.0 °F 31.9 °F 33.8 °F 76% 29.86 in 10.0 mi WNW 19.6 mph 27.6 mph N/A   Overcast
7:53 AM 41.0 °F 33.5 °F 35.6 °F 81% 29.88 in 10.0 mi WNW 13.8 mph 24.2 mph N/A   Overcast
8:14 AM 41.0 °F 30.9 °F 33.8 °F 76% 29.89 in 10.0 mi NW 24.2 mph 35.7 mph N/A   Overcast
8:33 AM 41.0 °F 32.8 °F 33.8 °F 76% 29.90 in 10.0 mi WNW 16.1 mph 28.8 mph N/A   Overcast
8:53 AM 41.0 °F 31.4 °F 35.6 °F 81% 29.91 in 10.0 mi WNW 21.9 mph 29.9 mph N/A   Overcast
9:13 AM 39.2 °F 26.8 °F 32.0 °F 75% 29.92 in 10.0 mi NW 33.4 mph 39.1 mph N/A   Overcast
9:34 AM 39.2 °F 29.0 °F 32.0 °F 75% 29.94 in 10.0 mi NW 21.9 mph 32.2 mph N/A   Overcast
9:53 AM 39.2 °F 29.6 °F 32.0 °F 75% 29.95 in 10.0 mi WNW 19.6 mph 29.9 mph N/A   Overcast
10:13 AM 39.2 °F 29.0 °F 32.0 °F 75% 29.96 in 10.0 mi NW 21.9 mph 31.1 mph N/A   Overcast
10:34 AM 39.2 °F 30.5 °F 32.0 °F 75% 29.98 in 10.0 mi WNW 16.1 mph 25.3 mph N/A   Overcast
10:54 AM 41.0 °F 31.4 °F 32.0 °F 70% 29.98 in 10.0 mi WNW 21.9 mph 32.2 mph N/A   Overcast
11:14 AM 41.0 °F 32.2 °F 32.0 °F 70% 29.99 in 10.0 mi NW 18.4 mph 28.8 mph N/A   Overcast
11:33 AM 41.0 °F 32.2 °F 32.0 °F 70% 29.99 in 10.0 mi NW 18.4 mph 28.8 mph N/A   Overcast
11:54 AM 41.0 °F 33.5 °F 32.0 °F 70% 29.99 in 10.0 mi NW 13.8 mph 24.2 mph N/A   Overcast
12:13 PM 42.8 °F 35.4 °F 33.8 °F 70% 29.99 in 10.0 mi West 15.0 mph 20.7 mph N/A   Overcast
12:33 PM 42.8 °F 32.9 °F 32.0 °F 66% 29.98 in 10.0 mi WNW 26.5 mph 35.7 mph N/A   Overcast
12:54 PM 42.8 °F 33.3 °F 30.2 °F 61% 29.99 in 10.0 mi WNW 24.2 mph 35.7 mph N/A   Mostly Cloudy
1:13 PM 41.0 °F 30.9 °F 32.0 °F 70% 30.00 in 10.0 mi NW 24.2 mph 32.2 mph N/A   Mostly Cloudy
1:33 PM 41.0 °F 31.6 °F 30.2 °F 65% 30.01 in 10.0 mi NW 20.7 mph 32.2 mph N/A   Overcast
1:53 PM 39.2 °F 29.6 °F 30.2 °F 70% 30.02 in 10.0 mi NW 19.6 mph 28.8 mph N/A   Overcast
2:13 PM 41.0 °F 32.8 °F 30.2 °F 65% 30.03 in 10.0 mi WNW 16.1 mph 26.5 mph N/A   Overcast
2:33 PM 41.0 °F 31.9 °F 30.2 °F 65% 30.03 in 10.0 mi WNW 19.6 mph 26.5 mph N/A   Overcast
2:53 PM 42.8 °F 35.1 °F 30.2 °F 61% 30.03 in 10.0 mi WNW 16.1 mph 33.4 mph N/A   Overcast
3:13 PM 42.8 °F 35.4 °F 30.2 °F 61% 30.04 in 10.0 mi WNW 15.0 mph 23.0 mph N/A   Overcast
3:34 PM 42.8 °F 33.8 °F 30.2 °F 61% 30.04 in 10.0 mi WNW 21.9 mph 31.1 mph N/A   Overcast
3:53 PM 42.8 °F 33.5 °F 30.2 °F 61% 30.06 in 10.0 mi NW 23.0 mph 27.6 mph N/A   Overcast
4:13 PM 41.0 °F 31.6 °F 30.2 °F 65% 30.07 in 10.0 mi WNW 20.7 mph 27.6 mph N/A   Overcast
4:33 PM 41.0 °F 31.6 °F 30.2 °F 65% 30.08 in 10.0 mi WNW 20.7 mph 26.5 mph N/A   Overcast
4:54 PM 39.2 °F 29.3 °F 30.2 °F 70% 30.09 in 10.0 mi NW 20.7 mph 24.2 mph N/A   Overcast
5:14 PM 39.2 °F 29.8 °F 30.2 °F 70% 30.11 in 10.0 mi NW 18.4 mph 32.2 mph N/A   Mostly Cloudy
5:33 PM 35.6 °F 25.2 °F 28.4 °F 75% 30.12 in 10.0 mi NW 18.4 mph 28.8 mph N/A   Scattered Clouds
5:53 PM 35.6 °F 25.5 °F 28.4 °F 75% 30.13 in 10.0 mi NW 17.3 mph 21.9 mph N/A   Clear
6:14 PM 35.6 °F 24.8 °F 28.4 °F 75% 30.15 in 10.0 mi NW 19.6 mph 27.6 mph N/A   Clear
6:33 PM 33.8 °F 23.5 °F 28.4 °F 81% 30.16 in 10.0 mi NW 16.1 mph 23.0 mph N/A   Clear
6:53 PM 33.8 °F 24.8 °F 28.4 °F 81% 30.17 in 10.0 mi WNW 12.7 mph 18.4 mph N/A   Clear
7:14 PM 33.8 °F 24.8 °F 28.4 °F 81% 30.17 in 10.0 mi WNW 12.7 mph 20.7 mph N/A   Scattered Clouds
7:34 PM 33.8 °F 24.8 °F 28.4 °F 81% 30.18 in 10.0 mi WNW 12.7 mph 19.6 mph N/A   Scattered Clouds
7:53 PM 33.8 °F 24.8 °F 28.4 °F 81% 30.18 in 10.0 mi WNW 12.7 mph 18.4 mph N/A   Mostly Cloudy
8:13 PM 33.8 °F 24.8 °F 28.4 °F 81% 30.19 in 10.0 mi WNW 12.7 mph 17.3 mph N/A   Overcast
8:34 PM 35.6 °F 26.6 °F 28.4 °F 75% 30.20 in 10.0 mi WNW 13.8 mph 18.4 mph N/A   Overcast
8:53 PM 35.6 °F 26.6 °F 28.4 °F 75% 30.20 in 10.0 mi WNW 13.8 mph 19.6 mph N/A   Overcast
9:13 PM 35.6 °F 26.6 °F 28.4 °F 75% 30.21 in 10.0 mi WNW 13.8 mph 18.4 mph N/A   Overcast
9:34 PM 35.6 °F 27.1 °F 28.4 °F 75% 30.22 in 10.0 mi WNW 12.7 mph 20.7 mph N/A   Overcast
9:53 PM 35.6 °F 26.2 °F 28.4 °F 75% 30.23 in 10.0 mi WNW 15.0 mph - N/A   Overcast
10:13 PM 35.6 °F 25.9 °F 28.4 °F 75% 30.24 in 10.0 mi WNW 16.1 mph 20.7 mph N/A   Overcast
10:33 PM 35.6 °F 25.9 °F 28.4 °F 75% 30.24 in 10.0 mi WNW 16.1 mph 23.0 mph N/A   Overcast
10:54 PM 35.6 °F 26.2 °F 28.4 °F 75% 30.25 in 10.0 mi WNW 15.0 mph 20.7 mph N/A   Overcast
11:14 PM 35.6 °F 26.2 °F 28.4 °F 75% 30.25 in 10.0 mi WNW 15.0 mph 20.7 mph N/A   Overcast
11:33 PM 35.6 °F 25.9 °F 28.4 °F 75% 30.26 in 10.0 mi WNW 16.1 mph 23.0 mph N/A   Overcast
11:53 PM 35.6 °F 25.9 °F 28.4 °F 75% 30.27 in 10.0 mi NW 16.1 mph 23.0 mph N/A   Overcast